If you wish to contribute or participate in the discussions about articles you are invited to join SKYbrary as a registered user

 Actions

Angel S Adami Airport

From SKYbrary Wiki

SUAA
Airport
ICAO: SUAA
Summary
Name Angel S Adami Airport
Region
Territory Uruguay UY.gif
Location , Montevideo
Serving Montevideo
Elevation 53.035 m
174 ft
174 ft53.035 m
Type medium airport
Coordinates 34° 47' 21.15" S, 56° 15' 52.93" W
Runways
Designator Length Width Surface ROPS
18/36 1250 m4,101.05 ft
23 m75.459 ft
CON /


METAR
Observation SUAA 111000Z 18011KT 9999 FEW004 BKN013 18/18 Q1012
Station Melilla
Date/Time 11 April 2019 10:00:00
Wind direction 180°
Wind speed 11 kts
Lowest cloud amount few clouds
Temperature 18°C
Dew point 18°C
Humidity 100%
QNH 1012 hPa
Weather condition n/a